SCP
0 0 0 0 0 0 0 0 0 0 0 1 1 1 1 1 1 2 2 2 2 2 3 3 3 3 3 3 3 3 3 3 2 2 2 2 2 2 2 2 2 1 1 1
0 0 0 0 0 0 0 0 0 0 0 1 1 1 1 1 1 2 2 2 2 2 3 3 3 3 3 3 3 3 3 3 3 2 2 2 2 3 2 2 2 2 1 1
0 0 0 0 0 0 0 0 0 0 1 1 1 1 1 1 1 2 2 2 2 2 3 3 3 3 3 3 3 3 3 3 3 3 3 2 2 3 2 2 2 2 2 2
0 0 0 0 0 0 0 0 0 0 1 1 1 1 1 1 1 2 2 2 2 2 2 2 2 3 3 3 3 3 3 3 3 3 3 3 2 2 2 2 2 2 2 2
0 0 0 0 0 0 0 0 0 1 1 1 1 1 1 1 1 2 2 2 2 2 2 2 2 2 3 3 3 3 3 3 3 3 3 3 3 3 3 2 2 2 2 2
0 0 0 0 0 0 0 0 1 1 1 1 1 1 1 1 1 2 2 2 2 2 2 2 2 2 3 3 3 3 3 3 3 3 3 3 3 3 3 3 2 2 2 2
0 0 0 0 0 0 1 1 1 1 1 1 2 2 2 2 2 2 2 2 2 2 2 2 3 3 3 3 3 3 3 3 3 3 3 3 3 3 3 3 2 2 2 2
0 0 0 1 1 1 1 1 1 1 1 2 2 2 2 2 2 2 2 2 3 3 3 3 3 3 3 3 3 3 3 3 3 3 3 3 3 3 3 2 2 2 2 1
0 1 1 1 1 1 1 1 1 1 1 1 1 1 2 2 2 2 2 2 2 3 3 3 3 3 3 3 3 2 2 3 3 3 3 3 3 3 2 2 2 2 1 1
0 1 1 1 1 1 1 1 1 1 1 1 1 1 2 2 2 2 2 2 2 3 3 3 3 3 3 3 3 3 3 3 3 3 3 3 3 3 2 2 2 2 1 1
0 0 1 1 1 1 1 1 1 1 1 1 1 1 1 2 2 2 2 2 2 2 2 3 3 3 3 3 3 3 3 3 3 3 3 3 3 2 2 1 1 1 1 1
0 0 0 0 1 1 1 1 1 1 1 1 1 1 1 1 1 1 2 2 2 2 2 2 2 2 2 2 2 2 2 2 2 2 2 2 2 2 1 1 1 1 1 0
0 0 0 0 0 1 1 1 1 1 1 1 1 1 1 1 1 1 1 1 1 1 1 1 1 2 2 2 2 2 2 2 2 2 2 2 1 1 1 1 0 0 0 0
0 0 0 0 0 0 1 1 1 1 1 1 1 1 1 1 1 1 1 1 1 1 1 1 1 1 1 1 2 2 2 2 1 1 1 1 1 1 1 1 0 0 0 0
0 0 0 0 0 0 0 0 0 1 1 1 1 1 1 1 1 1 1 1 1 1 1 1 1 1 1 1 1 1 1 1 1 1 1 1 1 1 1 1 1 0 0 0
0 0 0 0 0 0 0 0 0 0 0 0 0 0 1 1 1 1 1 1 1 1 1 1 1 1 1 1 1 1 1 1 1 1 1 1 1 1 1 1 1 1 0 0
0 0 0 0 0 0 0 0 0 0 0 0 0 0 0 1 1 1 1 1 1 1 1 1 1 1 1 1 1 1 1 1 1 1 1 1 1 1 1 1 1 1 0 0
0 0 0 0 0 0 0 0 0 0 0 0 0 0 0 1 1 1 1 1 1 1 1 1 1 1 1 1 1 1 1 1 1 1 1 1 0 0 1 1 1 0 0 0
0 0 0 0 0 0 0 0 0 0 0 0 0 0 0 1 1 1 1 1 1 1 1 1 1 1 1 1 1 1 1 0 0 0 0 0 0 0 0 0 0 0 0 0
0 0 0 0 0 0 0 0 0 0 0 0 0 0 0 1 1 1 1 1 1 1 1 1 0 0 0 0 0 0 0 0 0 0 0 0 0 0 0 0 0 0 0 0
0 0 0 0 0 0 0 0 0 0 0 0 0 0 0 1 1 1 1 0 0 0 0 0 0 0 0 0 0 0 0 0 0 0 0 0 0 0 0 0 0 0 0 0
0 0 0 0 0 0 0 0 0 0 0 0 0 0 0 0 0 0 0 0 0 0 0 0 0 0 0 0 0 0 0 0 0 0 0 0 0 0 0 0 0 0 0 0
0 0 0 0 0 0 0 0 0 0 0 0 0 0 0 0 0 0 0 0 0 0 0 0 0 0 0 0 0 0 0 0 0 0 0 0 0 0 0 0 0 0 0 0
0 0 0 0 0 0 0 0 0 0 0 0 0 0 0 0 0 0 0 0 0 0 0 0 0 0 0 0 0 0 0 0 0 0 0 0 0 0 0 0 0 0 0 0
0 0 0 0 0 0 0 0 0 0 0 0 0 0 0 0 0 0 0 0 0 0 0 0 0 0 0 0 0 0 0 0 0 0 0 0 0 0 0 0 0 0 0 0
0 0 0 0 0 0 0 0 0 0 0 0 0 0 0 0 0 0 0 0 0 0 0 0 0 0 0 0 0 0 0 0 0 0 0 0 0 0 0 0 0 0 0 0
0 0 0 0 0 0 0 0 0 0 0 0 0 0 0 0 0 0 0 0 0 0 0 0 0 0 0 0 0 0 0 0 0 0 0 0 0 0 0 0 0 0 0 0
Wind_Speed
16 14 12 11 13 14 13 13 12 7 4 4 5 5 6 6 7 7 5 4 5 4 4 4 4 4 4 3 4 5 6 6 6 5 5 5 5 5 4 5 5 4 3 3
15 16 14 14 13 13 13 13 12 8 3 4 6 6 5 6 6 6 4 5 4 4 4 4 3 3 4 3 4 4 5 5 6 5 4 4 4 5 4 4 4 4 4 3
13 14 14 16 12 11 9 8 8 7 2 4 5 5 3 4 5 5 4 4 3 2 3 3 3 2 2 4 4 4 3 4 4 5 5 5 5 5 5 5 4 4 4 4
11 12 15 9 7 8 7 5 3 1 2 4 5 5 4 4 5 5 3 2 2 1 1 2 2 2 1 3 3 4 4 4 5 5 5 5 4 4 4 4 5 4 4 4
10 13 13 7 5 6 5 4 1 1 1 4 6 5 5 6 5 4 3 2 1 1 0 1 1 2 2 2 3 4 4 4 4 5 4 5 5 5 4 4 4 5 5 4
9 12 10 2 3 4 6 3 3 3 3 4 3 1 4 5 5 5 4 3 2 2 1 1 1 1 3 3 3 4 4 4 4 4 5 5 4 4 4 4 4 4 4 4
12 12 6 4 6 6 6 2 5 4 5 5 5 5 4 4 4 4 4 4 4 3 2 1 0 0 2 3 3 2 2 3 4 4 4 4 4 4 4 4 3 3 3 4
9 11 3 9 6 6 6 5 6 5 6 7 6 5 4 5 5 4 4 5 5 4 3 2 1 1 2 2 2 2 2 3 4 4 4 4 4 4 4 4 4 4 4 4
3 1 5 7 7 6 5 5 5 5 6 5 4 3 4 4 5 5 5 4 4 4 3 3 2 1 1 1 2 2 2 3 3 4 3 4 5 5 4 4 5 5 5 5
3 2 4 5 5 5 6 5 6 5 4 4 4 4 4 4 4 4 4 4 4 4 3 3 3 2 1 1 2 2 2 2 3 3 3 3 3 4 4 4 4 4 4 4
3 2 3 4 6 6 4 4 4 5 4 3 3 3 3 3 3 3 3 3 3 4 3 4 3 2 2 1 1 2 2 3 3 3 3 3 2 1 2 1 2 2 1 2
3 4 4 3 5 7 6 4 4 4 4 3 3 3 2 2 2 3 3 3 3 4 4 4 4 3 2 1 1 2 2 2 3 3 3 3 4 2 4 3 5 5 4 2
4 5 5 5 4 6 6 5 5 4 3 3 3 3 3 3 3 3 3 3 3 3 4 4 4 3 3 2 1 2 2 3 2 2 3 3 3 4 3 2 4 4 4 4
3 4 6 6 6 5 5 5 5 4 4 3 3 3 3 3 3 3 4 3 3 4 4 4 3 3 3 2 1 1 2 3 2 2 3 3 3 4 4 4 3 2 3 5
4 5 6 6 6 5 4 4 4 3 3 4 3 3 4 4 4 4 3 3 3 4 4 4 4 3 2 2 1 2 2 2 1 1 2 2 2 3 3 4 3 3 4 4
5 5 6 6 6 6 5 5 5 4 4 4 4 4 4 4 4 4 3 3 3 4 4 3 3 3 3 2 1 2 1 1 1 1 1 1 2 3 3 3 3 3 4 5
6 6 6 7 6 5 5 5 5 4 4 4 5 5 5 5 4 4 3 3 3 3 3 3 3 3 2 2 2 2 1 0 0 1 1 1 1 1 2 3 3 2 3 4
6 6 6 6 5 5 5 5 5 4 4 4 5 5 5 5 5 4 3 3 4 3 3 2 2 2 2 2 2 2 1 1 1 0 0 1 1 1 1 2 3 3 2 4
6 6 6 5 5 5 5 5 4 3 3 3 4 4 5 5 4 3 3 3 3 3 3 2 2 2 2 1 1 1 1 1 1 1 1 2 1 1 1 1 2 2 3 3
5 5 4 4 4 4 4 4 4 3 3 3 4 4 4 4 3 2 2 2 2 2 3 2 2 1 1 2 2 1 0 1 2 2 2 1 1 1 1 2 3 2 1 2
4 4 4 3 3 3 3 3 3 3 3 3 4 4 3 2 2 2 2 2 3 4 4 2 1 2 2 2 2 1 1 1 2 2 2 1 1 2 2 2 2 3 2 2
3 3 3 2 2 2 3 3 3 3 3 3 3 3 2 1 1 1 2 2 2 4 2 2 2 4 4 3 2 2 2 2 2 2 1 2 2 2 2 2 2 2 3 2
2 2 2 2 1 2 3 3 2 2 2 2 2 2 2 1 1 1 1 2 2 2 2 3 5 6 5 2 2 3 3 3 2 2 2 2 2 2 2 2 2 3 2 2
2 2 2 1 1 1 1 1 2 2 1 1 2 2 1 1 1 1 2 3 3 2 2 3 3 4 3 1 2 3 3 3 2 3 3 3 3 3 3 2 2 2 2 2
2 1 1 1 1 1 1 1 2 2 1 2 3 3 2 2 2 3 3 3 3 2 3 2 1 1 1 2 2 2 2 2 2 2 2 3 3 3 2 2 2 2 2 2
1 0 0 0 1 1 1 2 2 1 1 1 2 2 2 2 3 3 2 3 3 3 2 2 1 1 1 1 2 3 3 3 3 2 3 4 3 3 3 3 3 2 2 2
0 0 1 0 1 2 2 2 2 2 2 2 3 3 3 3 3 3 3 3 3 2 2 2 2 2 2 3 3 3 3 3 3 3 4 3 3 2 2 3 2 2 2 2
Wind_Direction
263 265 265 251 240 242 245 257 266 267 216 162 130 126 120 121 116 114 112 99 90 104 113 118 118 128 143 159 158 163 166 173 172 176 176 176 180 175 176 179 177 164 160 157
262 260 260 263 250 241 244 249 253 255 226 117 95 99 113 119 112 104 99 88 80 84 101 113 120 144 149 151 150 155 169 179 169 169 171 171 171 171 174 179 171 162 165 169
262 258 258 253 254 249 248 258 266 265 179 117 102 97 82 94 110 104 92 83 77 65 96 116 127 136 162 158 158 163 171 174 163 167 176 172 180 178 175 178 176 173 170 173
260 260 254 255 271 264 254 252 271 238 128 111 101 92 69 69 86 88 83 84 69 51 83 114 130 130 197 178 165 177 185 183 176 174 178 171 175 184 183 179 181 180 180 178
257 253 248 235 252 272 267 260 324 336 50 92 107 106 91 66 60 73 53 46 38 345 357 91 131 141 163 204 190 194 194 190 179 173 180 178 181 186 186 186 186 183 180 180
253 260 264 275 320 302 275 225 27 39 54 50 62 135 79 49 35 46 37 24 1 344 7 56 83 150 182 205 198 202 199 190 179 177 185 188 185 185 184 186 187 186 182 173
246 254 258 9 337 287 254 20 22 40 56 55 35 28 51 36 42 45 35 16 4 356 359 21 62 210 196 199 203 196 191 187 183 182 189 185 176 179 180 181 176 183 178 177
245 253 264 12 17 19 39 32 36 43 55 61 54 49 39 32 30 33 27 16 7 6 1 357 341 249 221 205 192 180 187 181 182 181 197 188 177 182 185 182 180 190 194 190
338 37 65 46 53 36 31 31 30 40 47 54 50 42 33 27 20 19 19 12 1 356 353 356 351 313 262 219 189 194 193 191 188 186 187 182 182 190 195 196 199 195 196 197
340 61 51 45 44 26 18 18 19 28 34 40 26 23 21 16 12 6 4 0 355 356 355 352 348 337 317 251 206 204 207 203 194 183 186 183 181 192 197 203 209 200 193 191
282 313 338 18 9 1 4 2 10 14 22 28 9 3 5 2 359 350 347 352 352 346 345 341 340 347 339 314 229 215 212 203 201 195 182 160 162 172 184 169 203 202 199 187
303 359 338 339 352 338 337 352 4 359 354 358 350 334 337 341 346 342 337 345 348 345 341 338 337 340 337 319 235 215 217 210 210 199 176 166 155 119 59 96 92 89 100 119
343 338 319 308 325 318 316 331 336 330 327 331 337 329 324 327 333 333 328 332 333 333 332 327 329 334 334 328 264 229 228 222 221 205 188 186 176 169 158 98 78 93 128 135
339 318 296 303 305 308 315 322 320 324 329 334 338 337 322 318 318 320 317 319 323 329 323 317 324 338 340 334 309 274 259 242 219 198 191 196 199 196 187 181 168 154 152 151
308 300 296 300 299 296 298 297 294 299 311 319 324 319 309 307 308 314 312 305 308 309 310 313 321 324 314 302 293 287 285 282 257 222 208 198 209 210 198 188 167 159 143 132
296 294 294 292 290 289 289 293 298 305 316 318 317 312 306 302 302 300 298 296 295 299 306 314 312 306 304 302 293 284 271 295 271 234 213 209 224 215 193 173 160 164 152 139
282 280 281 283 285 291 299 299 295 303 307 309 310 307 304 300 295 289 290 298 296 287 288 288 289 299 310 313 305 293 290 113 149 243 232 218 224 200 161 153 155 156 141 138
282 280 284 288 287 286 286 288 288 290 295 303 307 309 306 299 294 296 301 303 302 300 301 305 317 319 306 302 296 281 247 162 174 251 52 65 56 84 112 132 135 132 122 131
285 283 283 284 287 288 291 289 292 305 308 312 313 304 301 298 301 304 310 309 307 313 331 348 338 302 306 333 326 284 229 168 148 121 96 102 115 114 117 109 108 127 145 141
305 311 306 304 308 311 313 310 314 323 323 319 307 299 296 295 303 317 338 334 353 358 360 7 345 339 353 26 354 316 70 118 115 104 94 112 128 130 137 123 116 110 95 124
313 313 306 307 324 333 325 315 316 311 309 306 297 297 302 313 331 359 359 14 26 13 7 29 24 28 27 13 340 333 69 82 90 98 109 115 117 109 98 94 103 113 113 106
326 322 315 328 351 357 350 330 314 305 304 300 305 311 322 336 13 44 49 33 27 25 11 29 37 37 23 8 9 20 47 61 64 83 97 93 94 91 90 92 90 85 94 97
327 328 330 339 354 2 352 334 323 319 320 335 356 4 6 10 25 64 64 38 28 16 12 40 31 27 12 9 22 49 55 62 71 74 74 83 90 92 89 88 85 83 85 83
334 338 341 342 339 349 350 2 14 18 43 58 73 72 58 70 66 65 76 90 65 37 43 57 43 18 358 20 48 57 62 54 56 72 75 73 74 79 82 83 85 84 83 85
327 342 6 342 328 6 50 66 69 64 70 91 95 90 82 82 75 65 65 73 86 83 74 78 50 22 24 34 57 63 63 55 49 54 66 71 72 75 78 82 81 78 76 76
319 312 98 295 9 359 43 80 80 80 75 83 92 91 79 77 82 86 95 100 96 91 79 82 85 92 69 52 59 64 70 82 80 77 71 67 64 60 62 62 77 83 86 85
293 118 155 56 58 59 65 80 85 85 81 77 74 71 73 75 78 77 74 81 86 85 85 81 70 58 51 55 65 70 74 72 66 67 71 68 62 58 66 69 67 68 68 78